NKS2718 KFLL-KATL

Flight info

Callsign NKS2718
Flight time 1h 27m
Altitude 32000
Route FRSBE2 STYMY Q77 SHRKS LAIRI LARZZ JJEDI3
Aircraft A320/M-SDE3FGHIRWY/LB1

Departure

Time 2026-05-05 16:58
Airport Fort Lauderdale Hollywood International Airport (KFLL)

Arrival

Time 2026-05-05 18:26
Airport Hartsfield Jackson Atlanta International Airport (KATL)
Time Latitude Longitude Altitude Speed Heading
2026-05-05 16:36 26.06888 -80.14474 18 ft 0 kts
2026-05-05 16:43 26.06880 -80.14475 19 ft 3 kts
2026-05-05 16:44 26.06861 -80.14476 18 ft 3 kts
2026-05-05 16:44 26.06843 -80.14475 20 ft 3 kts 28°
2026-05-05 16:44 26.06828 -80.14487 18 ft 2 kts 40°
2026-05-05 16:44 26.06821 -80.14502 17 ft 1 kts 85°
2026-05-05 16:45 26.06821 -80.14503 17 ft 0 kts 85°
2026-05-05 16:48 26.06819 -80.14490 17 ft 3 kts 99°
2026-05-05 16:49 26.06807 -80.14463 19 ft 5 kts 120°
2026-05-05 16:49 26.06774 -80.14416 18 ft 10 kts 131°
2026-05-05 16:49 26.06760 -80.14405 19 ft 0 kts 160°
2026-05-05 16:49 26.06755 -80.14411 18 ft 3 kts 226°
2026-05-05 16:50 26.06752 -80.14460 17 ft 11 kts 269°
2026-05-05 16:50 26.06765 -80.14563 16 ft 16 kts 274°
2026-05-05 16:50 26.06766 -80.14703 18 ft 19 kts 270°
2026-05-05 16:50 26.06766 -80.14852 22 ft 17 kts 270°
2026-05-05 16:51 26.06718 -80.14918 24 ft 11 kts 164°
2026-05-05 16:51 26.06693 -80.14854 21 ft 9 kts 90°
2026-05-05 16:51 26.06692 -80.14763 19 ft 18 kts 90°
2026-05-05 16:51 26.06692 -80.14586 17 ft 27 kts 90°
2026-05-05 16:52 26.06690 -80.14395 18 ft 20 kts 91°
2026-05-05 16:52 26.06690 -80.14261 20 ft 16 kts 90°
2026-05-05 16:52 26.06689 -80.14154 20 ft 12 kts 88°
2026-05-05 16:52 26.06702 -80.14078 23 ft 9 kts 70°
2026-05-05 16:53 26.06731 -80.14010 25 ft 12 kts 70°
2026-05-05 16:53 26.06742 -80.13884 26 ft 22 kts 89°
2026-05-05 16:53 26.06741 -80.13721 27 ft 14 kts 91°
2026-05-05 16:53 26.06741 -80.13638 28 ft 8 kts 90°
2026-05-05 16:54 26.06741 -80.13600 28 ft 2 kts 90°
2026-05-05 16:54 26.06741 -80.13599 28 ft 0 kts 94°
2026-05-05 16:57 26.06718 -80.13579 27 ft 8 kts 152°
2026-05-05 16:57 26.06701 -80.13574 27 ft 1 kts 169°
2026-05-05 16:57 26.06640 -80.13572 27 ft 16 kts 179°
2026-05-05 16:57 26.06576 -80.13622 26 ft 9 kts 261°
2026-05-05 16:58 26.06573 -80.13741 26 ft 41 kts 271°
2026-05-05 16:58 26.06580 -80.14343 17 ft 114 kts 270°
2026-05-05 16:58 26.06585 -80.15474 40 ft 177 kts 270°
2026-05-05 16:58 26.06589 -80.16960 629 ft 200 kts 270°
2026-05-05 16:59 26.06571 -80.18531 1456 ft 205 kts 270°
2026-05-05 16:59 26.06546 -80.20152 2144 ft 221 kts 270°
2026-05-05 16:59 26.06871 -80.21939 2574 ft 254 kts 301°
2026-05-05 16:59 26.08059 -80.23459 3439 ft 263 kts 320°
2026-05-05 17:00 26.09053 -80.24280 3940 ft 276 kts 326°
2026-05-05 17:00 26.10728 -80.25490 4004 ft 284 kts 325°
2026-05-05 17:00 26.12225 -80.26814 3991 ft 271 kts 317°
2026-05-05 17:00 26.13986 -80.28757 5261 ft 262 kts 322°
2026-05-05 17:01 26.15482 -80.29929 6278 ft 267 kts 323°
2026-05-05 17:01 26.16510 -80.30753 6863 ft 270 kts 322°
2026-05-05 17:01 26.18023 -80.32004 7869 ft 272 kts 322°
2026-05-05 17:01 26.19556 -80.33242 8780 ft 278 kts 322°
2026-05-05 17:02 26.21136 -80.34497 9676 ft 280 kts 322°
2026-05-05 17:02 26.22731 -80.35771 10473 ft 283 kts 321°
2026-05-05 17:02 26.24355 -80.37079 11034 ft 296 kts 321°
2026-05-05 17:02 26.26080 -80.38469 11331 ft 316 kts 321°
2026-05-05 17:03 26.27924 -80.39949 11575 ft 337 kts 321°
2026-05-05 17:03 26.29863 -80.41504 12138 ft 344 kts 321°
2026-05-05 17:03 26.31799 -80.43056 13039 ft 343 kts 321°
2026-05-05 17:03 26.33749 -80.44628 13677 ft 348 kts 321°
2026-05-05 17:04 26.35718 -80.46213 14357 ft 349 kts 321°
2026-05-05 17:04 26.37694 -80.47800 15023 ft 350 kts 321°
2026-05-05 17:04 26.39675 -80.49396 15662 ft 352 kts 321°
2026-05-05 17:04 26.41665 -80.51001 16313 ft 353 kts 321°
2026-05-05 17:05 26.43660 -80.52608 16953 ft 355 kts 321°
2026-05-05 17:05 26.45670 -80.54228 17555 ft 357 kts 321°
2026-05-05 17:05 26.47694 -80.55829 18211 ft 358 kts 325°
2026-05-05 17:05 26.49996 -80.56973 18661 ft 367 kts 339°
2026-05-05 17:06 26.52431 -80.57733 19191 ft 368 kts 340°
2026-05-05 17:06 26.54939 -80.58518 19650 ft 371 kts 340°
2026-05-05 17:06 26.57392 -80.59304 20124 ft 372 kts 340°
2026-05-05 17:06 26.59887 -80.60099 20588 ft 374 kts 340°
2026-05-05 17:07 26.62407 -80.60897 21042 ft 377 kts 339°
2026-05-05 17:07 26.64937 -80.61700 21582 ft 378 kts 339°
2026-05-05 17:07 26.67478 -80.62509 22001 ft 381 kts 339°
2026-05-05 17:07 26.70037 -80.63324 22444 ft 383 kts 339°
2026-05-05 17:08 26.72605 -80.64141 22878 ft 385 kts 339°
2026-05-05 17:08 26.75194 -80.64964 23244 ft 388 kts 339°
2026-05-05 17:08 26.77795 -80.65794 23638 ft 389 kts 339°
2026-05-05 17:08 26.80402 -80.66625 23987 ft 391 kts 339°
2026-05-05 17:09 26.83026 -80.67460 24310 ft 392 kts 339°
2026-05-05 17:09 26.85659 -80.68300 24625 ft 394 kts 339°
2026-05-05 17:09 26.88297 -80.69143 24971 ft 395 kts 339°
2026-05-05 17:09 26.90942 -80.69990 25296 ft 395 kts 339°
2026-05-05 17:10 26.93516 -80.70950 25571 ft 395 kts 336°
2026-05-05 17:10 26.96122 -80.71943 25875 ft 396 kts 337°
2026-05-05 17:10 26.98743 -80.72924 26161 ft 398 kts 337°
2026-05-05 17:10 27.01385 -80.73917 26428 ft 399 kts 337°
2026-05-05 17:11 27.04020 -80.74917 26704 ft 400 kts 337°
2026-05-05 17:11 27.06666 -80.75921 26971 ft 402 kts 337°
2026-05-05 17:11 27.09322 -80.76925 27232 ft 403 kts 337°
2026-05-05 17:11 27.11981 -80.77932 27484 ft 404 kts 337°
2026-05-05 17:12 27.14648 -80.78944 27733 ft 405 kts 337°
2026-05-05 17:12 27.17323 -80.79958 28006 ft 406 kts 337°
2026-05-05 17:12 27.20003 -80.80975 28277 ft 407 kts 337°
2026-05-05 17:12 27.22689 -80.81994 28513 ft 408 kts 337°
2026-05-05 17:13 27.25379 -80.83016 28731 ft 409 kts 337°
2026-05-05 17:13 27.28080 -80.84043 28954 ft 410 kts 337°
2026-05-05 17:13 27.30787 -80.85072 29195 ft 411 kts 337°
2026-05-05 17:13 27.33484 -80.86148 29396 ft 411 kts 335°
2026-05-05 17:14 27.36174 -80.87265 29612 ft 413 kts 336°
2026-05-05 17:14 27.38887 -80.88356 29804 ft 414 kts 336°
2026-05-05 17:14 27.41567 -80.89448 29997 ft 415 kts 336°
2026-05-05 17:14 27.44283 -80.90575 30187 ft 416 kts 336°
2026-05-05 17:15 27.47001 -80.91698 30417 ft 415 kts 336°
2026-05-05 17:15 27.49703 -80.92804 30761 ft 411 kts 336°
2026-05-05 17:15 27.52383 -80.93906 31047 ft 409 kts 336°
2026-05-05 17:15 27.55052 -80.95011 31304 ft 407 kts 336°
2026-05-05 17:16 27.57709 -80.96106 31576 ft 406 kts 336°
2026-05-05 17:16 27.60350 -80.97195 31833 ft 404 kts 336°
2026-05-05 17:16 27.62986 -80.98283 32074 ft 403 kts 336°
2026-05-05 17:16 27.65634 -80.99379 32055 ft 408 kts 336°
2026-05-05 17:17 27.70965 -81.01580 32051 ft 407 kts 336°
2026-05-05 17:17 27.76256 -81.03770 32054 ft 407 kts 336°
2026-05-05 17:18 27.81577 -81.05974 32057 ft 406 kts 336°
2026-05-05 17:18 27.86872 -81.08170 32058 ft 405 kts 335°
2026-05-05 17:19 27.92160 -81.10364 32059 ft 405 kts 335°
2026-05-05 17:19 27.97456 -81.12565 32061 ft 405 kts 335°
2026-05-05 17:20 28.02754 -81.14769 32066 ft 406 kts 335°
2026-05-05 17:20 28.08074 -81.16931 32067 ft 406 kts 336°
2026-05-05 17:21 28.13406 -81.19058 32073 ft 405 kts 336°
2026-05-05 17:22 28.21337 -81.22257 32087 ft 405 kts 336°
2026-05-05 17:22 28.26651 -81.24402 32091 ft 406 kts 336°
2026-05-05 17:23 28.31975 -81.26550 32085 ft 406 kts 336°
2026-05-05 17:23 28.37300 -81.28703 32083 ft 406 kts 336°
2026-05-05 17:24 28.42630 -81.30859 32092 ft 405 kts 336°
2026-05-05 17:24 28.47936 -81.33007 32088 ft 404 kts 336°
2026-05-05 17:25 28.53238 -81.35158 32101 ft 405 kts 336°
2026-05-05 17:25 28.58541 -81.37310 32093 ft 405 kts 336°
2026-05-05 17:26 28.63855 -81.39469 32096 ft 406 kts 336°
2026-05-05 17:26 28.69144 -81.41621 32128 ft 407 kts 335°
2026-05-05 17:27 28.74418 -81.43767 32090 ft 404 kts 335°
2026-05-05 17:27 28.79715 -81.45927 32089 ft 405 kts 335°
2026-05-05 17:28 28.85026 -81.48095 32084 ft 405 kts 335°
2026-05-05 17:28 28.90341 -81.50265 32087 ft 405 kts 335°
2026-05-05 17:29 28.95647 -81.52436 32093 ft 405 kts 335°
2026-05-05 17:29 29.00962 -81.54610 32097 ft 404 kts 335°
2026-05-05 17:30 29.06255 -81.56780 32081 ft 403 kts 335°
2026-05-05 17:30 29.11509 -81.58936 32085 ft 403 kts 335°
2026-05-05 17:31 29.16787 -81.61104 32090 ft 404 kts 335°
2026-05-05 17:31 29.22083 -81.63281 32089 ft 403 kts 335°
2026-05-05 17:32 29.27357 -81.65453 32087 ft 403 kts 335°
2026-05-05 17:32 29.32654 -81.67637 32092 ft 405 kts 335°
2026-05-05 17:33 29.37950 -81.69820 32092 ft 404 kts 335°
2026-05-05 17:33 29.43244 -81.72007 32096 ft 404 kts 335°
2026-05-05 17:34 29.48496 -81.74179 32099 ft 404 kts 335°
2026-05-05 17:34 29.53791 -81.76370 32096 ft 404 kts 335°
2026-05-05 17:35 29.59087 -81.78564 32100 ft 405 kts 335°
2026-05-05 17:35 29.64368 -81.80756 32091 ft 403 kts 335°
2026-05-05 17:36 29.69646 -81.82948 32090 ft 404 kts 335°
2026-05-05 17:36 29.74942 -81.85149 32092 ft 404 kts 335°
2026-05-05 17:37 29.80242 -81.87356 32092 ft 405 kts 335°
2026-05-05 17:37 29.85542 -81.89564 32092 ft 405 kts 335°
2026-05-05 17:38 29.90800 -81.91758 32099 ft 403 kts 335°
2026-05-05 17:38 29.96072 -81.93960 32107 ft 403 kts 335°
2026-05-05 17:39 30.01353 -81.96168 32125 ft 404 kts 335°
2026-05-05 17:39 30.06648 -81.98384 32126 ft 404 kts 335°
2026-05-05 17:40 30.11920 -82.00594 32123 ft 403 kts 335°
2026-05-05 17:40 30.17202 -82.02810 32129 ft 404 kts 335°
2026-05-05 17:41 30.22434 -82.05007 32120 ft 402 kts 335°
2026-05-05 17:41 30.27709 -82.07226 32136 ft 403 kts 335°
2026-05-05 17:42 30.32995 -82.09451 32138 ft 404 kts 335°
2026-05-05 17:42 30.38290 -82.11682 32136 ft 404 kts 335°
2026-05-05 17:43 30.43569 -82.13910 32146 ft 403 kts 334°
2026-05-05 17:43 30.48809 -82.16124 32156 ft 403 kts 335°
2026-05-05 17:44 30.54081 -82.18354 32159 ft 403 kts 334°
2026-05-05 17:44 30.59344 -82.20582 32164 ft 402 kts 334°
2026-05-05 17:45 30.64611 -82.22816 32163 ft 403 kts 334°
2026-05-05 17:45 30.69878 -82.25051 32165 ft 404 kts 334°
2026-05-05 17:46 30.75162 -82.27295 32160 ft 405 kts 334°
2026-05-05 17:46 30.80443 -82.29542 32158 ft 403 kts 334°
2026-05-05 17:47 30.85715 -82.31788 32146 ft 403 kts 334°
2026-05-05 17:47 30.90100 -82.33657 32149 ft 404 kts 334°
2026-05-05 17:48 30.95379 -82.35912 32132 ft 404 kts 334°
2026-05-05 17:48 31.00664 -82.38169 32115 ft 404 kts 334°
2026-05-05 17:49 31.05904 -82.40411 32104 ft 404 kts 334°
2026-05-05 17:49 31.11181 -82.42672 32093 ft 404 kts 334°
2026-05-05 17:50 31.16459 -82.44934 32090 ft 404 kts 334°
2026-05-05 17:50 31.21736 -82.47200 32095 ft 404 kts 334°
2026-05-05 17:51 31.27014 -82.49470 32086 ft 404 kts 334°
2026-05-05 17:51 31.32294 -82.51741 32107 ft 405 kts 334°
2026-05-05 17:52 31.37573 -82.54016 32096 ft 403 kts 334°
2026-05-05 17:52 31.42843 -82.56290 32095 ft 404 kts 334°
2026-05-05 17:53 31.48116 -82.58568 32099 ft 404 kts 334°
2026-05-05 17:53 31.53402 -82.60853 32098 ft 405 kts 334°
2026-05-05 17:54 31.58650 -82.63126 32108 ft 405 kts 334°
2026-05-05 17:54 31.63944 -82.65421 32091 ft 405 kts 334°
2026-05-05 17:55 31.69224 -82.67712 32082 ft 403 kts 334°
2026-05-05 17:55 31.74496 -82.70004 32086 ft 404 kts 334°
2026-05-05 17:56 31.79780 -82.72302 32090 ft 405 kts 334°
2026-05-05 17:56 31.85064 -82.74604 32093 ft 405 kts 334°
2026-05-05 17:57 31.90322 -82.76897 32082 ft 403 kts 334°
2026-05-05 17:57 31.95586 -82.79197 32088 ft 404 kts 334°
2026-05-05 17:58 32.00873 -82.81507 32086 ft 405 kts 334°
2026-05-05 17:58 32.06169 -82.83827 32093 ft 406 kts 334°
2026-05-05 17:59 32.11459 -82.86144 32101 ft 405 kts 334°
2026-05-05 17:59 32.16722 -82.88454 32094 ft 406 kts 333°
2026-05-05 18:00 32.21929 -82.90735 32077 ft 387 kts 333°
2026-05-05 18:00 32.26905 -82.92931 32076 ft 378 kts 333°
2026-05-05 18:01 32.31797 -82.95082 31822 ft 367 kts 333°
2026-05-05 18:01 32.34181 -82.96130 31290 ft 363 kts 333°
2026-05-05 18:01 32.36560 -82.97214 30824 ft 370 kts 330°
2026-05-05 18:01 32.38797 -82.98732 30323 ft 371 kts 320°
2026-05-05 18:02 32.40785 -83.00692 29784 ft 374 kts 316°
2026-05-05 18:02 32.42750 -83.02730 29279 ft 376 kts 316°
2026-05-05 18:02 32.44746 -83.04778 28751 ft 382 kts 316°
2026-05-05 18:02 32.46718 -83.06801 28238 ft 379 kts 316°
2026-05-05 18:03 32.48707 -83.08851 27393 ft 378 kts 316°
2026-05-05 18:03 32.50731 -83.10945 25668 ft 394 kts 316°
2026-05-05 18:03 32.52810 -83.13092 24817 ft 392 kts 316°
2026-05-05 18:03 32.54864 -83.15203 24585 ft 394 kts 316°
2026-05-05 18:04 32.56961 -83.17375 24399 ft 404 kts 316°
2026-05-05 18:04 32.59078 -83.19567 24251 ft 404 kts 316°
2026-05-05 18:04 32.61174 -83.21731 24127 ft 392 kts 316°
2026-05-05 18:04 32.63200 -83.23831 24014 ft 385 kts 316°
2026-05-05 18:05 32.65196 -83.25910 23896 ft 377 kts 315°
2026-05-05 18:05 32.67125 -83.27914 23784 ft 369 kts 315°
2026-05-05 18:05 32.69006 -83.29863 23571 ft 351 kts 315°
2026-05-05 18:05 32.70844 -83.31778 23060 ft 354 kts 315°
2026-05-05 18:06 32.72695 -83.33712 22591 ft 355 kts 316°
2026-05-05 18:06 32.73955 -83.35023 22271 ft 357 kts 316°
2026-05-05 18:06 32.76443 -83.37610 21645 ft 360 kts 316°
2026-05-05 18:06 32.78335 -83.39583 21165 ft 363 kts 316°
2026-05-05 18:07 32.80239 -83.41570 20684 ft 365 kts 316°
2026-05-05 18:07 32.82156 -83.43571 20201 ft 368 kts 316°
2026-05-05 18:07 32.84085 -83.45584 19733 ft 370 kts 316°
2026-05-05 18:07 32.86022 -83.47608 19241 ft 373 kts 316°
2026-05-05 18:08 32.87976 -83.49652 18740 ft 374 kts 316°
2026-05-05 18:08 32.89941 -83.51707 18236 ft 378 kts 316°
2026-05-05 18:08 32.91915 -83.53773 17713 ft 378 kts 316°
2026-05-05 18:08 32.93889 -83.55840 17216 ft 379 kts 316°
2026-05-05 18:09 32.95876 -83.57924 16708 ft 382 kts 316°
2026-05-05 18:09 32.97875 -83.60018 16202 ft 384 kts 316°
2026-05-05 18:09 32.99891 -83.62126 15667 ft 387 kts 316°
2026-05-05 18:09 33.01919 -83.64252 15126 ft 390 kts 316°
2026-05-05 18:10 33.03904 -83.66334 14624 ft 376 kts 316°
2026-05-05 18:10 33.05804 -83.68324 14140 ft 351 kts 316°
2026-05-05 18:10 33.07574 -83.70180 13669 ft 326 kts 316°
2026-05-05 18:10 33.09225 -83.71917 13249 ft 309 kts 316°
2026-05-05 18:11 33.10808 -83.73582 12852 ft 299 kts 316°
2026-05-05 18:11 33.12368 -83.75230 12467 ft 301 kts 315°
2026-05-05 18:11 33.13925 -83.76869 12067 ft 296 kts 315°
2026-05-05 18:11 33.15470 -83.78493 11677 ft 297 kts 315°
2026-05-05 18:12 33.17012 -83.80126 11289 ft 298 kts 315°
2026-05-05 18:12 33.18568 -83.81772 10895 ft 299 kts 315°
2026-05-05 18:12 33.20057 -83.83508 10496 ft 299 kts 311°
2026-05-05 18:12 33.21528 -83.85263 10103 ft 299 kts 312°
2026-05-05 18:13 33.23024 -83.87006 9690 ft 300 kts 312°
2026-05-05 18:13 33.24490 -83.88738 9285 ft 292 kts 311°
2026-05-05 18:13 33.25906 -83.90441 8911 ft 285 kts 311°
2026-05-05 18:13 33.27289 -83.92101 8537 ft 279 kts 311°
2026-05-05 18:14 33.28651 -83.93715 8179 ft 273 kts 311°
2026-05-05 18:14 33.29983 -83.95295 7987 ft 263 kts 311°
2026-05-05 18:14 33.31234 -83.96792 7707 ft 257 kts 311°
2026-05-05 18:14 33.32498 -83.98322 7256 ft 259 kts 311°
2026-05-05 18:15 33.33765 -83.99842 6804 ft 257 kts 311°
2026-05-05 18:15 33.35022 -84.01338 6435 ft 252 kts 311°
2026-05-05 18:15 33.36417 -84.02585 6009 ft 255 kts 334°
2026-05-05 18:15 33.38181 -84.02960 5559 ft 261 kts 358°
2026-05-05 18:16 33.39991 -84.02949 5194 ft 260 kts
2026-05-05 18:16 33.41800 -84.02981 4819 ft 259 kts 357°
2026-05-05 18:16 33.43596 -84.03049 4421 ft 259 kts 359°
2026-05-05 18:16 33.45412 -84.03040 4058 ft 261 kts 359°
2026-05-05 18:17 33.47184 -84.03074 4012 ft 247 kts 360°
2026-05-05 18:17 33.48867 -84.03116 4003 ft 239 kts 355°
2026-05-05 18:17 33.50539 -84.03245 4023 ft 244 kts 358°
2026-05-05 18:17 33.52176 -84.03354 4018 ft 227 kts 355°
2026-05-05 18:18 33.53798 -84.03522 4027 ft 237 kts 354°
2026-05-05 18:18 33.55407 -84.03697 4015 ft 235 kts 353°
2026-05-05 18:18 33.57017 -84.03870 4012 ft 229 kts 354°
2026-05-05 18:18 33.58624 -84.04028 4019 ft 231 kts 354°
2026-05-05 18:19 33.60218 -84.04191 4020 ft 230 kts 354°
2026-05-05 18:19 33.61810 -84.04359 4025 ft 229 kts 354°
2026-05-05 18:19 33.63377 -84.04710 3975 ft 231 kts 333°
2026-05-05 18:19 33.64416 -84.05980 3947 ft 205 kts 286°
2026-05-05 18:20 33.64482 -84.07632 3990 ft 194 kts 257°
2026-05-05 18:20 33.64104 -84.09162 4009 ft 192 kts 245°
2026-05-05 18:20 33.63654 -84.10654 4018 ft 190 kts 245°
2026-05-05 18:20 33.63273 -84.12196 4010 ft 195 kts 254°
2026-05-05 18:21 33.63199 -84.13818 4003 ft 195 kts 264°
2026-05-05 18:21 33.63196 -84.15457 4008 ft 198 kts 264°
2026-05-05 18:21 33.63201 -84.17106 4010 ft 197 kts 264°
2026-05-05 18:21 33.63188 -84.18739 4026 ft 195 kts 264°
2026-05-05 18:22 33.63185 -84.20383 4027 ft 195 kts 266°
2026-05-05 18:22 33.63193 -84.21998 4026 ft 195 kts 264°
2026-05-05 18:22 33.63189 -84.23631 3904 ft 195 kts 265°
2026-05-05 18:22 33.63186 -84.25239 3663 ft 186 kts 265°
2026-05-05 18:23 33.63191 -84.26763 3442 ft 188 kts 264°
2026-05-05 18:23 33.63188 -84.28297 3199 ft 185 kts 264°
2026-05-05 18:23 33.63192 -84.29822 2987 ft 177 kts 264°
2026-05-05 18:23 33.63190 -84.31284 2753 ft 172 kts 263°
2026-05-05 18:24 33.63174 -84.32715 2535 ft 172 kts 264°
2026-05-05 18:24 33.63205 -84.34108 2289 ft 168 kts 263°
2026-05-05 18:24 33.63208 -84.35507 2058 ft 165 kts 263°
2026-05-05 18:24 33.63198 -84.36906 1826 ft 167 kts 263°
2026-05-05 18:25 33.63196 -84.38267 1617 ft 163 kts 262°
2026-05-05 18:25 33.63200 -84.38727 1558 ft 164 kts 266°
2026-05-05 18:25 33.63190 -84.41009 1172 ft 161 kts 264°
2026-05-05 18:25 33.63189 -84.42312 1016 ft 145 kts 264°
2026-05-05 18:26 33.63169 -84.43342 1008 ft 100 kts 269°
2026-05-05 18:26 33.63175 -84.43905 1005 ft 45 kts 271°
2026-05-05 18:26 33.63180 -84.44240 1005 ft 36 kts 267°
2026-05-05 18:26 33.63181 -84.44541 1006 ft 31 kts 271°
2026-05-05 18:27 33.63188 -84.44732 1008 ft 17 kts 289°
2026-05-05 18:27 33.63266 -84.44782 1007 ft 11 kts
2026-05-05 18:27 33.63330 -84.44779 1007 ft 5 kts
2026-05-05 18:27 33.63347 -84.44780 1007 ft 0 kts 359°
2026-05-05 18:28 33.63388 -84.44781 1007 ft 15 kts 359°
2026-05-05 18:28 33.63538 -84.44781 1006 ft 21 kts
2026-05-05 18:28 33.63646 -84.44740 1006 ft 14 kts 49°
2026-05-05 18:29 33.63665 -84.44635 1007 ft 20 kts 90°
2026-05-05 18:29 33.63664 -84.44471 1007 ft 17 kts 90°
2026-05-05 18:29 33.63664 -84.44348 1007 ft 12 kts 90°
2026-05-05 18:29 33.63664 -84.44215 1007 ft 15 kts 91°
2026-05-05 18:30 33.63663 -84.44085 1007 ft 14 kts 90°
2026-05-05 18:30 33.63663 -84.43974 1007 ft 15 kts 90°
2026-05-05 18:30 33.63664 -84.43845 1007 ft 13 kts 83°
2026-05-05 18:30 33.63713 -84.43787 1007 ft 8 kts
2026-05-05 18:31 33.63765 -84.43786 1007 ft 8 kts 359°
2026-05-05 18:31 33.63814 -84.43787 1007 ft 6 kts 360°
2026-05-05 18:31 33.63837 -84.43790 1007 ft 1 kts 342°
2026-05-05 18:31 33.63843 -84.43801 1007 ft 3 kts 295°
2026-05-05 18:32 33.63842 -84.43825 1007 ft 4 kts 265°
2026-05-05 18:32 33.63842 -84.43854 1007 ft 1 kts 269°
2026-05-05 18:32 33.63842 -84.43859 1007 ft 1 kts 269°
2026-05-05 18:32 33.63842 -84.43860 1007 ft 0 kts 269°